Beamsville

*Note: All times are displayed in the local standard time of the station location.
**Rain - Equipment is designed to accurately record liquid precipitation; under conditions when precipitation is not in liquid form, the data displayed may not properly reflect rainfall values.

Date Max Temp
(°C)
Min Temp
(°C)
Avg Temp
(°C)
Rain (mm) Avg RH (%)
Sat, Feb 17, 2018 -1.2 -6.3 -3.2 0.0 90.7
Fri, Feb 16, 2018 4.5 -6.1 -0.3 0.0 91.2
Thu, Feb 15, 2018 8.7 3.4 6.1 0.6 100.0
Wed, Feb 14, 2018 5.7 -4.1 2.7 11.0 92.4
Tue, Feb 13, 2018 -1.5 -14.4 -6.9 0.0 92.1
Mon, Feb 12, 2018 -1.8 -9.3 -5.2 0.0 91.0
Sun, Feb 11, 2018 0.8 -4.0 -1.9 0.2 100.0
DateTime Avg Temp (°C) Rain (mm) RH (%)
Sun, Feb 18, 2018 04:00 -2.5 0.0 100.0
Sun, Feb 18, 2018 03:00 -2.3 0.0 100.0
Sun, Feb 18, 2018 02:00 -2.0 0.0 100.0
Sun, Feb 18, 2018 01:00 -1.8 0.0 100.0
Sun, Feb 18, 2018 00:00 -1.6 0.0 100.0
Sat, Feb 17, 2018 23:00 -1.4 0.0 99.5
Sat, Feb 17, 2018 22:00 -1.5 0.0 93.3
Sat, Feb 17, 2018 21:00 -1.6 0.0 92.3
Sat, Feb 17, 2018 20:00 -1.7 0.0 90.3
Sat, Feb 17, 2018 19:00 -1.7 0.0 85.8
Sat, Feb 17, 2018 18:00 -1.6 0.0 80.5
Sat, Feb 17, 2018 17:00 -1.5 0.0 78.8
Sat, Feb 17, 2018 16:00 -1.4 0.0 80.0
Sat, Feb 17, 2018 15:00 -1.3 0.0 80.0
Sat, Feb 17, 2018 14:00 -1.3 0.0 80.8
Sat, Feb 17, 2018 13:00 -1.3 0.0 81.5
Sat, Feb 17, 2018 12:00 -1.4 0.0 80.8
Sat, Feb 17, 2018 11:00 -1.7 0.0 84.0
Sat, Feb 17, 2018 10:00 -2.8 0.0 88.8
Sat, Feb 17, 2018 09:00 -4.0 0.0 93.5
Sat, Feb 17, 2018 08:00 -5.8 0.0 100.0
Sat, Feb 17, 2018 07:00 -5.9 0.0 100.0
Sat, Feb 17, 2018 06:00 -6.1 0.0 100.0
Sat, Feb 17, 2018 05:00 -6.1 0.0 100.0
Sat, Feb 17, 2018 04:00 -6.0 0.0 100.0
Sat, Feb 17, 2018 03:00 -6.1 0.0 98.3
Sat, Feb 17, 2018 02:00 -6.1 0.0 95.5
Sat, Feb 17, 2018 01:00 -6.0 0.0 94.0
Sat, Feb 17, 2018 00:00 -5.9 0.0 94.0
Fri, Feb 16, 2018 23:00 -5.9 0.0 95.5
Fri, Feb 16, 2018 22:00 -5.8 0.0 93.0
Fri, Feb 16, 2018 21:00 -5.3 0.0 90.0
Fri, Feb 16, 2018 20:00 -4.3 0.0 82.3
Fri, Feb 16, 2018 19:00 -3.7 0.0 79.0
Fri, Feb 16, 2018 18:00 -3.1 0.0 77.5
Fri, Feb 16, 2018 17:00 -1.6 0.0 76.5
Fri, Feb 16, 2018 16:00 -0.3 0.0 76.5
Fri, Feb 16, 2018 15:00 0.7 0.0 76.5
Fri, Feb 16, 2018 14:00 1.1 0.0 76.3
Fri, Feb 16, 2018 13:00 1.3 0.0 80.5
Fri, Feb 16, 2018 12:00 1.6 0.0 90.8
Fri, Feb 16, 2018 11:00 1.3 0.0 100.0
Fri, Feb 16, 2018 10:00 1.3 0.0 100.0
Fri, Feb 16, 2018 09:00 1.1 0.0 100.0
Fri, Feb 16, 2018 08:00 0.9 0.0 100.0
Fri, Feb 16, 2018 07:00 1.7 0.0 100.0
Fri, Feb 16, 2018 06:00 2.2 0.0 100.0
Fri, Feb 16, 2018 05:00 2.2 0.0 100.0


asterix Register now to access more data! asterix